Regional Weather Roundup
Issued by NWS

Current Version | Previous Version | Text Only | Print | Product List | Glossary On
Versions: 1 2 3 4 5 6 7 8 9 10 11 12 13 14 15 16 17 18 19 20 21 22 23 24 25 26 27 28 29 30 31 32 33 34 35 36 37 38 39 40 41 42 43 44 45 46 47 48 49 50
000
ASUS43 KFSD 200210
RWRSD

WEATHER ROUNDUP FOR SOUTH DAKOTA
NATIONAL WEATHER SERVICE SIOUX FALLS SD
800 PM CST THU JAN 19 2017

NOTE: "FAIR" INDICATES FEW OR NO CLOUDS BELOW 12,000 FEET WITH NO
SIGNIFICANT WEATHER AND/OR OBSTRUCTIONS TO VISIBILITY.


SDZ001>005-009-010-012>017-200300-
NORTHWEST AND NORTH CENTRAL SOUTH DAKOTA

CITY           SKY/WX    TMP DP  RH WIND       PRES   REMARKS
BUFFALO          N/A     31  20  63 W10       29.39S WCI  22
FAITH            N/A     22  20  92 W6        29.44S WCI  14
MOBRIDGE       FOG       21  17  84 CALM      29.47F VSB 1/2
$$

SDZ012>016-024>037-041>051-057-063-072>074-200300-
SOUTHWEST AND SOUTH CENTRAL SOUTH DAKOTA

CITY           SKY/WX    TMP DP  RH WIND       PRES   REMARKS
RAPID CTY ARPT CLOUDY    29  21  72 NW6       29.46S WCI  23
PIERRE         CLOUDY    17  14  88 NW5       29.47F WCI  10
CUSTER         CLOUDY    35  19  52 W6        29.48S
ELLSWORTH AFB  CLOUDY    32  23  69 NW5       29.45S WCI  27
PHILIP         CLOUDY    19  17  92 W3        29.47S
PINE RIDGE     CLOUDY    28  25  88 CALM      29.48R
SPEARFISH      FAIR      32  23  69 CALM      29.48S
WINNER         FAIR      38  35  89 S15       29.47F
$$

SDZ004>011-016>023-039-040-200300-
NORTHEAST SOUTH DAKOTA

CITY           SKY/WX    TMP DP  RH WIND       PRES   REMARKS
ABERDEEN       CLOUDY    34  32  92 SE12      29.55S FOG     WCI  25
WATERTOWN      FOG       34  34 100 S16       29.56F VSB 3/4 WCI  24
BROOKINGS      FOG       35  34  96 SE15      29.59F VSB 3/4 WCI  25
SISSETON         N/A     35  34  96 SE13      29.59S WCI  26
$$

SDZ017-020-022-023-036>040-048>070-200300-
SOUTHEAST SOUTH DAKOTA

CITY           SKY/WX    TMP DP  RH WIND       PRES   REMARKS
SIOUX FALLS    DRIZZLE   37  37 100 SE10      29.61F FOG
HURON          CLOUDY    37  37 100 SE12      29.54F
CHAMBERLAIN    CLEAR     36  36  99 SE10      29.49F
MITCHELL       CLOUDY    40  39  97 S13       29.56F
YANKTON        MOCLDY    39  36  87 SE12      29.59F
$$

ABBREVIATIONS USED IN REMARKS
   TC - TEMPERATURE IN CELSIUS
  WCI - WIND CHILL INDEX
   HX - HEAT INDEX
  VSB - VISIBILITY




USA.gov is the U.S. government's official web portal to all federal, state and local government web resources and services.